ATLAS 5 CENTAUR DEB, 44668

Orbit data source: Space-Track

ATLAS 5 CENTAUR DEB, 44668 is space debris in HEO originally from a launch on Wed, 17 Oct 2018 UTC launched from the Air Force Eastern Test Range (AFETR). Debris objects in space refer to the collection of defunct objects orbiting the Earth. Examples of debris include non-operational satellites, rocket bodies, and fragments generated from explosions, collisions, or faulty payload assembly.

Loading next visibility...
Identifier
44668, 2018-079AE
Orbit
HEO
Country
Flag of USUS
Related business
Flag of USUnited Launch Alliance/Lockheed Martin (US)
Manufacturer
ULA Decatur
Mission
Spacecraft
Bus & Motor
Unknown
Mass
Unknown
Launch date (UTC)
2018-10-17 (7 years ago)
Launch vehicle
Unknown
Launch site
Air Force Eastern Test Range (AFETR)
Object type
Payload
Rocket body
Debris
Shape & HBR
Unknown
Radar Cross Section
RCS unknown

Expand to show TLE details & history
Last TLE update: 2 weeks ago

TLE from 2 weeks ago
0 ATLAS 5 CENTAUR DEB
1 44668U 18079AE  25227.53353853 -.00000117  00000-0  00000+0 0  9995
2 44668  13.2370  28.7436 4543542 332.8389   9.2040  1.97444022 44791
Epoch: 2025-08-15T12:48Z
TLE epoch observation values (Epoch: 2025-08-15T12:48:17.729Z)
Latitude
0.00003°
Longitude
-127.48257°
Altitude
8,788.859 km
Speed
6.141 km/s
True Right ascension
01h 55m 05s
True Declination
0° 00' 00"
Sunlit
Object was in daylight at epoch
Visualization orbit readout
Latitude
Unknown
Longitude
Unknown
Altitude
Unknown
Speed
Unknown
Apparent Right ascension
Unknown
Apparent Declination
Unknown
Sunlit
N/A
Visualization observer readout
Local Sidereal Time
16:52:16
Azimuth
Unknown
Elevation
Unknown
Doppler factor
Unknown
Orbital elements
Apogee altitude
32,658.966 km
Perigee altitude
8,267.835 km
Semi-major axis
26,841.537 km
Eccentricity
0.45435
Inclination
13.237°
RAAN
28.7436°
Arg. of periapsis
332.8389°
True anomaly
26.90828°
Mean anomaly
9.204°
Eccentric anomaly
16.67297°
Mean motion
0.49355 °/min
Orbital period
729.41 mins
BSTAR
0
Loading maneuver chart data...
Computing Atmospheric mass density...

Documentation

Showing up to 5 results
|